GFSGBSN_sfc_wetblb_057.txt.gz
Wetbulb
57.37 57.86 57.78 58.58 59.15 60.72 61.16 60.59 59.63 58.71 58.30 57.90 57.57 57.49 57.45 57.47 57.07 56.88 56.44 56.24 56.40 56.68 56.82 56.65 57.02 57.26 53.73 50.48 52.66 59.00 63.32 62.21 58.01 55.16 52.03 52.06 50.05 48.18 44.38 45.05 46.25 45.12 51.52 52.19 52.50 52.11 51.58
56.04 56.62 56.99 57.43 57.86 58.83 61.17 60.71 59.76 58.76 58.24 57.79 57.43 57.14 56.72 56.60 56.31 56.39 56.18 55.92 55.83 55.88 56.20 56.53 56.94 56.71 52.51 47.15 57.48 61.03 61.95 59.61 57.68 53.14 51.35 51.80 50.87 50.98 47.96 47.16 46.51 48.39 50.56 50.63 50.74 50.73 53.21
55.49 55.85 56.37 56.59 57.15 57.64 58.67 59.89 59.56 58.87 58.45 57.97 57.53 56.92 56.49 56.15 55.95 55.76 55.94 55.69 55.37 55.41 56.06 56.33 56.65 54.93 51.00 48.92 55.64 54.77 56.96 57.52 56.28 54.53 52.29 54.00 53.88 49.94 50.81 47.71 50.40 49.59 46.30 49.68 50.73 51.33 50.29
55.28 55.26 55.84 56.32 56.59 56.61 56.79 58.29 59.20 58.98 58.50 58.07 57.73 56.84 55.88 55.46 55.03 54.82 55.19 54.93 54.91 55.25 55.92 56.25 56.45 52.85 48.10 58.51 56.41 56.55 56.40 55.52 58.19 57.40 56.38 55.61 55.09 51.81 50.19 50.87 48.18 45.18 45.44 41.13 48.67 50.76 51.31
54.76 54.94 55.05 55.76 56.04 56.13 56.19 56.42 58.12 58.76 58.52 57.88 57.28 56.49 55.70 54.82 54.31 54.38 54.50 54.28 54.68 55.41 56.10 55.99 52.35 50.89 49.38 60.22 56.78 57.11 55.58 54.54 56.26 56.64 56.37 56.15 53.24 49.48 49.73 45.06 41.86 43.78 38.09 41.18 43.93 50.60 49.56
54.36 54.40 54.61 54.74 55.36 55.72 56.11 56.15 56.53 57.76 57.94 57.59 57.05 56.51 55.60 54.76 54.27 53.97 53.55 53.91 54.71 54.05 54.67 54.90 54.53 47.43 52.73 52.89 55.85 55.05 55.23 55.96 54.92 54.71 52.92 52.16 49.69 46.47 45.33 42.67 35.78 38.98 40.00 42.09 41.06 45.17 47.64
53.81 54.25 54.74 54.36 53.99 55.60 55.89 56.08 56.14 56.72 57.28 57.34 56.95 56.33 55.52 54.56 54.27 53.85 52.62 51.77 50.08 49.25 50.46 48.74 49.76 49.93 51.44 55.41 56.91 53.81 55.45 53.76 52.81 52.20 45.78 49.83 43.66 41.53 43.98 45.29 45.47 44.88 42.85 41.52 43.68 45.74 44.69
53.06 53.46 53.81 54.30 54.08 55.12 56.10 56.08 55.80 55.93 56.70 57.00 56.66 55.96 55.40 54.56 54.42 54.42 51.57 48.17 52.17 53.03 48.40 54.08 52.98 53.23 54.48 54.31 51.10 53.24 55.12 49.83 49.17 46.56 47.96 44.33 41.41 47.68 49.01 47.76 45.85 44.53 43.06 41.76 45.51 46.12 44.74
51.70 52.82 52.01 53.58 53.99 54.49 55.91 55.81 55.04 55.69 56.02 56.32 56.12 55.68 55.28 54.27 54.15 51.47 50.50 50.82 55.39 54.16 47.89 51.87 54.46 54.03 53.35 52.65 50.27 50.73 52.23 50.10 47.39 46.41 46.48 43.47 45.94 49.25 47.84 46.43 45.39 44.45 41.96 42.32 42.39 44.33 43.04
51.29 51.12 52.09 52.76 53.59 53.80 54.98 55.17 55.08 55.47 55.81 55.73 55.51 55.05 54.34 53.24 50.29 51.90 50.53 55.75 55.13 52.81 42.61 46.80 50.00 53.51 53.58 50.95 49.12 53.89 53.87 49.99 48.35 45.57 46.33 45.52 48.98 47.60 46.33 45.30 46.32 41.06 47.23 46.67 44.69 41.26 35.29
50.77 50.66 51.35 51.88 52.30 52.73 53.41 53.78 54.56 55.64 55.93 55.57 55.11 54.58 53.78 53.15 50.31 50.70 56.22 57.15 55.39 53.50 32.36 49.72 50.60 54.31 50.42 49.44 49.91 50.30 53.45 49.77 45.20 46.88 46.70 44.87 45.60 45.78 44.41 45.59 48.45 44.03 48.46 46.53 45.50 41.61 39.30
49.51 50.46 50.74 51.10 51.23 51.54 52.59 53.06 53.99 53.86 55.42 55.26 54.73 54.13 53.55 52.33 51.57 52.32 54.77 55.08 55.39 43.47 33.32 46.01 49.59 46.92 47.15 48.88 49.18 49.88 49.15 50.77 49.58 46.33 47.06 45.89 49.00 47.74 47.29 48.73 48.70 49.65 46.41 45.66 44.14 41.45 33.74
48.30 49.01 48.12 50.56 51.03 51.12 52.48 52.75 52.90 52.98 53.79 54.94 54.15 53.71 52.93 54.61 50.21 55.51 54.27 53.67 41.12 36.42 47.47 43.92 43.76 46.61 45.93 45.12 46.29 46.75 45.25 43.34 40.78 38.34 39.11 43.94 45.25 48.61 50.66 45.82 47.44 46.03 41.93 33.43 31.14 30.44 31.15
47.85 47.56 47.83 48.94 50.52 51.05 51.73 52.15 52.53 52.63 53.55 54.24 53.47 52.93 52.60 53.46 54.20 55.44 54.44 47.53 36.57 41.90 43.42 48.18 45.90 45.79 43.10 45.34 45.18 45.68 43.11 40.44 44.02 43.03 39.05 38.04 36.55 44.69 48.80 45.51 43.64 43.07 42.08 33.43 28.31 29.19 32.34
46.51 47.24 47.25 48.02 49.75 50.28 51.17 52.13 52.38 52.45 53.15 53.85 52.83 52.28 50.46 52.05 53.22 53.65 50.56 39.66 36.99 43.63 46.73 46.43 44.92 41.96 41.80 44.80 45.40 44.10 41.93 41.06 43.34 44.03 38.48 39.04 39.97 47.75 49.91 49.50 46.86 43.05 39.96 44.81 38.44 38.66 31.00
46.45 46.41 46.76 46.80 49.25 50.10 50.29 51.44 52.16 52.08 52.81 52.62 51.71 50.41 49.10 54.14 55.47 51.58 46.35 39.78 43.84 48.44 49.07 48.47 41.78 43.10 39.21 41.93 42.09 42.92 41.57 44.79 44.42 46.30 47.09 44.70 38.66 45.67 48.00 49.20 47.94 45.68 46.66 37.36 36.96 27.51 25.97
45.71 46.04 46.57 47.18 47.92 49.16 49.96 51.10 51.67 51.59 52.84 52.52 51.38 46.67 50.61 54.47 54.31 48.36 39.02 41.67 45.42 50.46 50.52 47.31 44.86 42.97 42.77 41.91 42.81 41.59 42.49 45.46 46.52 48.94 48.27 45.27 41.55 41.95 46.75 43.90 42.20 42.22 39.94 40.96 39.87 36.41 28.43
45.23 45.43 46.01 46.88 47.44 48.16 49.33 50.75 51.32 51.38 52.25 51.29 50.18 42.47 52.19 56.08 43.28 42.91 40.19 43.87 46.43 48.59 50.82 49.24 48.39 47.28 44.43 43.45 43.44 41.93 42.45 44.53 48.32 49.52 44.66 46.63 42.14 36.58 41.67 47.01 47.44 44.72 42.58 42.46 31.21 33.40 34.91
44.82 45.16 46.04 46.75 47.31 48.11 47.88 50.01 50.85 51.29 51.86 49.76 46.57 46.71 53.49 53.20 35.61 38.51 42.87 44.24 46.88 47.68 47.40 48.23 47.51 48.67 47.46 44.33 42.28 44.92 44.14 49.96 49.07 47.43 45.20 46.49 40.19 32.06 36.64 41.03 45.03 41.92 43.39 43.16 42.19 38.75 34.38
44.76 45.13 45.92 46.42 46.80 46.70 47.41 48.97 50.41 51.02 51.81 51.57 46.90 41.02 48.05 49.81 44.16 41.14 40.42 41.10 42.51 48.74 48.12 49.70 48.56 48.97 46.21 43.46 45.60 44.59 45.31 49.55 50.18 48.29 45.90 47.90 43.16 37.92 31.78 36.91 41.66 39.96 42.28 43.02 40.47 30.57 33.19
44.83 45.28 45.72 46.01 46.27 46.25 47.18 46.10 50.21 50.90 51.37 50.80 46.43 42.71 47.79 42.24 43.19 42.46 42.61 42.42 42.52 43.16 48.89 49.86 47.35 46.89 45.07 40.82 42.38 43.77 46.30 46.99 49.12 46.92 47.18 45.44 38.43 40.15 40.96 42.50 43.11 42.85 42.23 42.46 41.61 40.06 33.93
44.69 44.90 45.39 45.52 45.96 46.35 46.52 44.22 49.69 50.49 50.83 47.46 44.22 44.70 48.17 46.29 46.93 44.42 42.12 41.02 41.96 45.32 46.97 46.03 45.10 47.23 46.45 42.83 43.64 41.70 46.28 45.76 44.33 46.16 44.56 46.03 38.50 39.62 37.77 43.15 42.02 39.13 41.77 41.57 41.28 41.55 39.90
44.85 44.89 45.11 45.19 45.72 45.72 45.82 43.72 49.49 50.16 50.26 43.99 48.36 48.29 48.37 44.37 44.77 43.08 42.27 42.90 44.09 47.32 48.86 50.09 47.40 46.72 45.12 46.72 49.01 48.59 50.05 49.55 48.46 45.62 43.11 43.43 40.40 35.03 32.10 37.39 36.92 29.68 37.82 40.08 41.25 42.04 40.45
44.70 44.87 44.99 45.16 45.43 45.31 44.99 43.31 48.99 50.06 50.03 48.42 48.70 49.44 46.69 40.18 44.25 43.48 44.34 45.20 45.82 47.05 47.40 49.82 48.92 46.84 50.16 53.20 52.16 50.18 48.26 47.73 50.09 47.70 48.42 42.95 40.73 35.37 29.53 29.90 21.92 38.18 44.41 42.81 41.25 41.61 41.15
44.41 44.63 44.97 45.31 45.28 45.54 44.36 46.31 48.80 49.69 50.21 46.67 49.63 50.09 46.59 35.25 45.04 45.14 44.56 44.88 46.52 48.50 48.36 49.14 51.13 52.95 52.99 50.59 44.29 40.06 38.34 37.24 41.93 46.76 45.77 46.64 38.99 32.34 27.18 27.52 35.14 39.36 41.57 40.15 38.43 37.69 42.28
44.15 44.35 44.73 45.35 45.37 45.82 47.29 48.11 48.79 49.33 50.02 47.75 46.01 49.13 49.32 42.76 43.92 47.98 44.70 46.26 44.49 45.81 46.63 48.40 52.33 53.85 51.97 47.45 40.47 33.38 31.70 37.85 37.92 40.63 44.75 44.77 42.54 32.55 28.77 25.07 21.37 36.71 42.19 45.05 43.29 31.15 43.34
44.12 44.59 44.97 44.83 46.84 47.06 47.33 47.90 48.81 49.15 49.41 48.14 46.19 48.78 48.13 46.70 47.64 48.60 44.39 44.05 49.08 47.31 44.64 47.21 48.10 48.33 50.60 35.96 33.44 31.65 31.55 42.28 34.16 34.22 32.29 30.92 31.31 28.05 24.83 25.41 31.63 43.74 44.23 45.25 30.69 32.78 43.74
44.02 44.49 44.95 45.89 46.79 46.92 47.63 48.32 48.37 48.73 49.09 48.22 45.27 49.62 49.45 47.57 48.86 51.81 50.11 48.43 50.01 49.39 42.88 46.82 45.32 47.45 45.28 35.04 34.68 32.75 30.51 37.03 36.73 42.54 36.79 33.70 30.53 27.98 31.28 30.55 26.69 46.05 42.92 36.27 41.45 43.83 44.77
45.62 45.45 45.78 46.23 46.61 47.00 47.84 47.77 47.96 48.47 49.00 48.20 44.11 51.02 52.70 47.84 49.30 54.82 53.28 53.74 53.33 53.01 50.57 47.63 45.71 47.26 47.32 40.36 38.16 38.02 35.46 34.81 35.42 30.76 43.68 34.69 39.88 34.92 35.76 34.82 43.55 45.40 44.71 45.46 45.36 43.93 44.65

GFSGBSN_sfc_wetblb_060.txt.gz
Wetbulb
55.96 55.66 57.11 57.71 58.01 58.26 58.79 60.26 60.00 58.88 58.20 57.81 57.63 57.33 57.59 57.75 57.33 56.70 55.94 55.72 56.12 56.32 56.40 56.33 56.80 57.31 52.79 48.08 49.77 57.78 62.72 61.71 56.23 53.93 50.47 50.19 48.56 46.85 43.03 44.07 44.26 43.10 49.75 51.17 51.92 51.55 51.84
55.78 55.79 56.12 56.41 57.22 57.54 58.20 58.50 60.09 59.17 58.35 57.82 57.36 56.94 56.77 56.70 56.62 56.13 55.86 55.41 55.49 55.67 55.79 56.02 56.48 56.55 51.32 44.35 55.56 60.40 59.23 57.20 54.94 51.76 49.40 50.00 48.77 49.30 47.03 47.15 45.26 48.04 49.38 48.86 48.21 49.99 50.98
55.17 55.75 55.56 55.65 56.34 56.96 57.27 57.10 57.62 59.50 58.69 57.97 57.55 57.07 56.65 56.49 56.25 55.80 55.40 55.11 55.05 55.07 55.71 55.97 56.38 54.39 49.76 45.93 52.92 52.65 54.29 55.38 55.71 52.61 50.50 51.43 51.51 48.93 48.73 47.60 49.37 49.00 46.03 47.43 47.55 49.33 47.37
54.74 55.05 55.70 55.16 55.39 56.21 56.41 56.41 56.48 58.20 59.08 58.29 57.98 57.01 56.16 55.45 55.11 54.78 54.54 54.40 54.52 54.99 55.57 55.82 56.04 52.13 46.25 56.08 54.78 55.48 54.53 54.38 55.89 54.52 53.38 54.19 53.25 50.42 48.40 48.94 47.03 43.44 43.20 39.51 46.52 49.28 50.16
53.47 54.28 54.80 55.02 54.71 55.08 55.82 55.94 55.88 56.74 58.48 58.56 57.79 56.82 55.98 54.92 54.34 53.91 53.65 54.03 54.24 55.07 55.64 55.66 50.91 49.85 47.29 58.45 55.18 57.29 55.92 53.14 54.47 54.99 54.05 54.94 51.68 47.53 48.03 43.50 40.47 41.71 36.72 39.31 43.37 49.25 47.55
52.71 53.47 54.01 54.27 54.43 54.57 55.22 55.68 55.46 55.80 56.49 57.70 57.56 56.96 56.00 54.88 54.03 53.22 52.99 53.77 54.40 53.99 53.82 54.69 53.44 44.79 50.17 50.66 54.81 54.77 54.00 54.50 52.41 53.35 51.06 49.97 47.45 44.89 43.10 40.28 35.64 37.77 39.15 40.86 40.26 46.21 46.21
52.41 53.25 53.56 54.02 54.18 54.57 54.65 54.83 55.40 55.17 55.61 56.54 57.42 56.86 56.00 54.78 53.93 53.26 51.43 49.88 48.29 48.36 48.88 46.88 46.70 45.87 49.62 53.87 55.07 51.85 52.97 52.25 52.59 50.08 43.78 47.46 42.68 39.42 41.25 45.28 45.25 44.27 42.50 39.70 42.08 44.91 44.44
52.08 52.46 52.23 53.21 53.67 54.33 54.63 54.53 54.98 54.95 55.21 55.82 56.52 56.68 55.90 54.72 53.70 53.83 50.07 46.18 49.14 49.24 44.29 51.68 51.95 51.07 53.27 53.55 49.12 50.94 54.04 48.54 48.06 43.91 46.58 44.00 39.14 46.09 47.91 46.54 45.29 44.15 41.75 40.92 43.49 44.04 44.46
51.73 51.28 51.81 52.25 52.19 53.62 54.31 54.34 54.43 54.78 54.46 55.05 55.67 56.16 55.69 54.11 53.54 50.49 48.45 48.95 52.70 52.24 44.83 49.80 52.71 52.09 53.12 54.51 49.16 48.85 51.31 49.12 46.28 44.29 44.52 40.92 44.01 48.35 47.05 44.81 44.02 43.07 41.07 39.98 40.26 42.45 43.18
50.83 50.85 51.14 51.88 52.22 51.87 53.34 53.78 54.10 54.78 54.31 54.60 55.01 55.63 54.66 53.15 48.81 49.50 49.50 54.34 54.65 51.71 40.05 44.69 49.25 52.17 53.48 51.03 45.94 51.73 52.45 49.27 46.90 43.48 44.04 43.32 47.19 45.84 44.23 43.68 44.56 38.77 45.16 44.66 42.44 38.67 33.86
49.63 50.13 49.93 51.06 51.44 51.63 51.92 52.71 53.35 54.62 54.48 54.78 54.67 55.19 53.87 52.52 49.33 49.24 54.06 53.05 52.81 51.87 24.88 46.97 49.07 55.46 52.50 46.52 48.11 48.76 51.57 48.72 44.50 45.24 45.01 42.53 43.59 43.97 42.99 44.15 46.03 42.35 46.42 44.77 43.42 38.93 37.08
48.92 48.71 49.61 50.04 50.92 50.27 50.66 51.39 52.40 53.62 53.99 54.50 54.43 54.73 53.60 51.97 50.64 50.76 52.45 53.64 53.83 41.08 28.18 45.67 50.01 46.54 44.46 45.69 47.42 48.29 48.27 48.85 48.17 45.71 45.39 43.36 46.56 46.43 45.04 47.08 47.11 47.39 44.19 43.38 41.80 38.71 32.58
47.54 48.23 48.39 49.40 49.88 50.54 50.06 51.19 51.40 52.63 53.50 53.75 54.18 53.95 52.96 53.55 48.02 53.16 54.06 52.05 39.52 34.83 46.05 43.18 43.55 44.59 44.11 43.26 44.86 45.47 43.59 41.95 39.44 36.94 37.37 42.18 43.20 45.99 48.34 43.93 45.71 44.19 39.29 30.99 29.30 29.31 30.10
47.52 47.50 47.80 49.08 49.32 49.60 50.35 50.04 50.92 51.97 52.58 52.55 53.29 53.02 53.45 52.95 51.17 52.88 53.05 46.06 34.60 39.83 41.84 47.66 44.18 43.86 41.24 43.58 43.37 43.78 41.50 38.74 41.54 41.14 37.13 36.11 34.83 43.20 46.80 43.94 41.01 41.98 39.39 31.18 26.68 26.92 31.14
47.27 47.54 47.39 47.65 48.45 48.74 48.33 50.29 50.69 51.78 52.03 52.27 52.90 52.81 51.89 52.69 52.09 52.14 48.77 38.89 35.02 41.82 45.75 43.65 43.20 40.06 39.84 43.11 43.17 42.02 40.26 39.46 42.01 42.17 37.09 36.65 38.35 46.32 47.38 47.66 45.16 41.35 37.51 43.00 36.43 35.41 30.28
47.12 46.99 47.30 46.80 47.43 47.88 47.75 48.82 50.33 51.26 51.80 52.01 50.36 50.62 50.41 52.68 52.80 50.95 45.81 37.56 41.46 47.30 47.92 47.11 39.80 41.59 37.56 40.10 39.88 40.31 39.85 43.22 42.20 44.45 44.16 42.07 36.92 44.57 46.77 47.89 46.70 43.27 45.27 36.75 36.28 27.17 25.53
46.60 46.67 46.81 46.91 46.35 46.39 47.47 48.19 49.62 50.48 51.75 52.27 49.06 45.55 51.27 54.27 52.89 45.68 38.62 39.25 43.11 48.16 48.95 45.97 43.20 41.12 41.20 39.98 40.75 39.29 40.75 43.75 44.59 44.95 45.61 43.45 39.61 39.28 44.71 42.47 41.01 40.59 38.80 39.57 38.52 33.65 27.61
46.20 46.17 46.20 46.37 46.47 46.39 46.73 47.38 48.65 49.90 51.11 50.62 46.10 41.23 52.02 54.62 41.95 39.26 39.47 42.85 44.11 45.98 48.85 47.52 47.16 45.44 42.30 41.78 40.24 40.01 40.55 43.16 46.62 47.49 43.24 44.46 40.14 34.97 40.43 45.07 46.13 42.41 40.73 40.27 31.15 32.14 32.44
45.98 45.89 45.98 45.94 46.17 46.16 46.46 46.93 47.80 49.65 50.68 47.04 43.56 45.29 51.54 51.81 36.81 35.25 40.62 43.18 44.97 44.05 45.58 46.18 45.44 47.04 45.85 42.24 37.89 41.40 42.18 47.51 46.75 46.65 43.41 44.80 38.57 31.64 36.17 40.57 42.91 40.43 41.47 41.84 39.96 35.34 31.81
45.68 45.64 45.60 45.79 45.95 46.10 46.81 46.97 48.23 49.46 50.81 48.10 45.02 39.35 46.16 47.50 44.30 38.60 37.45 39.61 40.85 46.17 44.91 46.75 46.28 47.48 44.86 42.35 44.09 40.76 43.21 47.48 48.07 46.80 46.10 46.17 40.50 35.83 32.08 36.16 38.94 37.27 40.88 40.83 38.24 28.91 31.46
45.59 45.26 45.31 45.48 45.59 46.15 46.68 47.29 48.21 48.85 50.52 47.21 45.82 41.92 44.47 39.63 40.44 40.53 39.96 40.36 39.73 40.06 44.82 47.47 45.31 45.17 43.97 40.11 40.18 40.64 44.83 45.10 47.13 45.47 45.71 43.56 37.35 39.24 39.86 40.72 41.03 39.87 39.82 39.84 38.55 37.75 32.84
45.51 45.09 45.01 45.14 45.33 45.90 46.29 47.17 47.66 48.68 50.30 44.54 43.21 43.17 45.52 42.50 43.09 39.84 39.12 38.23 38.99 41.30 42.72 41.82 42.87 45.86 45.48 41.60 41.73 39.96 44.27 43.21 42.22 44.26 42.67 44.02 36.76 36.62 35.32 39.12 39.05 37.28 38.96 39.39 39.49 39.33 38.55
45.73 45.04 44.83 44.99 45.42 45.70 46.15 46.82 47.53 46.40 49.59 43.61 43.88 47.17 45.16 41.89 41.94 39.68 38.46 39.33 40.21 42.97 44.91 45.27 46.67 45.82 43.58 45.61 46.47 45.23 48.29 47.90 46.62 43.40 41.25 41.25 38.56 32.76 30.99 34.99 35.28 30.05 36.08 38.62 39.47 40.13 39.54
45.49 44.90 44.97 45.07 45.58 45.80 45.94 46.38 46.50 46.86 47.72 46.35 44.59 47.57 44.33 38.76 42.35 41.10 41.82 42.59 41.78 43.01 41.58 46.72 46.11 45.46 48.02 50.71 49.08 47.35 46.15 47.01 46.54 45.05 45.76 40.02 37.81 32.37 28.36 28.68 22.65 37.64 42.11 41.92 39.20 38.74 39.17
44.98 44.90 44.94 45.42 45.68 46.05 45.89 46.00 46.07 46.40 45.31 45.79 47.24 46.08 45.72 35.84 43.45 44.10 42.97 43.49 44.39 44.64 44.41 44.52 48.82 50.14 51.20 48.30 41.81 38.06 36.59 36.99 40.61 43.55 43.69 44.82 36.80 31.29 26.92 27.30 33.50 37.97 40.02 37.85 36.80 35.06 40.17
44.70 44.65 45.08 45.28 45.28 45.40 45.57 45.40 45.37 45.52 44.68 46.73 46.30 48.23 46.46 42.68 41.45 46.66 44.46 44.77 41.82 42.07 42.80 46.56 50.94 51.40 50.80 44.36 37.21 32.75 31.06 35.96 36.41 38.82 42.70 42.15 38.99 33.74 30.60 23.51 21.44 34.80 40.46 42.54 40.88 30.02 41.11
44.40 44.73 45.02 45.14 45.09 45.19 45.04 44.92 44.29 44.88 44.52 47.27 45.36 48.19 44.43 43.02 47.80 47.45 43.73 43.20 46.21 43.71 42.15 46.56 47.65 46.93 48.50 35.99 33.29 30.62 31.86 40.21 33.14 32.59 30.60 30.11 30.61 28.37 23.27 21.97 28.82 39.13 42.99 42.69 30.30 31.56 41.99
44.27 44.49 44.44 44.66 44.77 44.80 45.20 45.00 44.88 44.93 48.32 47.23 44.91 48.68 44.16 44.06 45.63 50.99 48.59 44.92 46.00 45.39 41.26 45.15 44.49 44.17 42.06 35.70 34.69 34.97 29.74 36.07 34.74 38.65 34.50 32.87 29.68 27.75 28.25 20.45 25.49 42.75 41.04 35.95 38.15 41.61 43.66
44.11 44.18 44.30 44.44 44.78 44.94 45.30 45.18 45.98 48.37 48.73 48.42 42.78 47.47 48.34 44.13 44.36 49.50 51.30 52.86 50.89 50.05 48.81 46.40 45.80 45.40 45.63 39.70 37.49 37.49 34.54 31.72 33.47 31.12 41.00 33.38 35.81 32.59 34.44 32.79 40.58 42.96 42.32 42.94 43.90 42.94 42.68

GFSGBSN_sfc_wetblb_063.txt.gz
Wetbulb
55.57 55.94 56.40 56.31 56.90 57.74 57.75 58.14 58.00 58.94 58.96 58.27 57.78 57.71 57.75 57.84 57.71 57.22 56.07 55.44 55.58 55.94 56.10 55.99 56.25 56.91 52.22 45.51 46.06 54.44 61.83 61.02 57.47 52.56 49.37 48.49 47.06 45.42 41.71 42.98 43.24 39.92 47.12 49.41 51.00 50.63 49.05
54.34 55.02 55.90 55.80 55.92 56.16 56.40 57.08 57.60 57.31 58.64 58.42 57.79 57.29 57.24 57.16 57.06 56.62 56.07 55.29 54.89 55.27 55.70 55.86 56.11 56.47 49.21 40.49 51.80 58.55 56.90 54.47 53.58 50.60 48.26 49.02 48.11 47.88 45.44 44.53 43.86 46.71 47.46 46.48 48.15 48.86 49.94
53.89 53.89 54.97 55.45 55.43 55.72 56.27 56.49 56.74 56.76 56.92 58.46 57.98 57.45 57.03 56.95 56.59 56.13 55.82 55.01 54.50 54.68 55.45 55.64 55.89 54.07 48.56 44.09 51.07 51.93 53.27 52.58 54.74 51.73 48.68 49.33 49.70 47.60 47.23 45.74 48.22 48.01 44.56 46.75 47.04 47.06 46.42
53.38 53.64 53.72 54.67 54.84 54.97 54.94 55.82 56.11 56.39 56.27 57.23 58.38 57.62 56.66 56.26 55.74 55.15 54.78 54.11 54.01 54.68 55.31 55.52 55.43 50.58 43.37 53.72 53.24 55.01 53.33 53.76 53.97 54.42 51.65 52.62 51.89 48.92 46.69 47.51 45.56 42.56 42.27 38.81 45.67 47.28 49.15
53.04 52.95 53.12 54.02 54.04 54.52 54.51 54.69 55.66 55.81 55.93 56.19 57.38 57.42 56.56 55.62 54.85 54.30 53.83 53.50 53.95 55.07 55.13 55.18 49.23 47.13 45.24 56.35 52.16 55.66 55.19 52.87 52.84 53.41 52.39 54.40 50.42 46.21 46.30 41.29 37.75 38.60 34.09 37.45 42.83 47.98 46.47
52.27 52.78 53.05 53.71 53.52 53.58 54.17 54.57 54.85 55.30 55.23 55.25 55.74 56.80 56.64 55.62 54.75 53.53 52.92 53.54 53.95 53.62 53.85 54.45 52.67 42.45 46.18 48.51 53.08 53.79 53.69 53.62 50.96 51.31 49.51 48.78 45.75 42.41 41.33 38.45 32.91 35.25 35.60 38.44 39.51 43.12 44.30
52.50 52.53 53.15 53.12 53.32 53.48 54.04 53.96 54.18 54.56 54.72 54.81 55.23 55.70 56.50 55.74 54.46 53.22 51.18 48.90 46.17 47.28 47.93 45.81 44.54 43.16 45.97 52.08 54.23 50.57 51.86 51.12 51.00 48.69 42.70 45.71 40.95 36.79 39.06 41.99 43.58 42.72 39.82 38.16 41.43 42.93 43.11
51.51 51.42 52.26 52.67 52.27 52.61 52.50 53.92 53.90 53.54 54.60 54.78 54.93 55.11 55.63 55.74 54.52 53.52 49.50 45.32 46.91 47.66 42.37 49.21 49.65 49.25 51.67 52.86 49.12 51.02 52.35 47.05 46.88 42.52 44.41 42.19 38.49 43.84 45.37 44.88 44.39 42.58 39.62 39.12 42.34 43.67 43.28
50.70 50.89 51.12 51.96 51.05 52.00 52.32 53.19 52.72 53.39 53.70 54.42 54.26 54.70 55.21 55.20 53.60 50.60 47.59 47.74 52.14 51.35 41.90 46.98 50.76 49.78 50.76 52.69 48.82 49.02 50.14 48.33 44.49 42.44 42.39 39.36 42.35 46.41 45.19 42.92 42.32 41.11 39.35 39.11 39.47 40.12 41.29
49.40 49.16 50.15 49.74 51.78 51.35 52.08 51.88 53.09 53.09 53.27 54.02 53.65 53.93 54.29 53.72 49.84 48.69 48.25 52.80 52.23 50.82 36.90 41.81 47.94 50.30 52.11 52.03 45.52 51.27 50.60 48.83 45.32 42.64 42.65 41.63 44.90 44.53 42.54 42.19 42.66 37.39 43.29 42.39 41.09 36.60 32.83
49.04 48.71 48.64 49.55 49.09 49.91 50.72 51.50 51.44 52.78 53.08 54.20 53.51 53.82 54.01 53.07 47.98 48.67 52.62 51.72 52.68 50.43 23.86 42.99 48.04 53.76 51.44 45.45 45.81 46.77 50.42 47.53 43.34 43.78 43.35 40.90 42.07 42.55 41.70 42.64 44.16 40.76 44.60 42.75 41.81 37.63 34.92
48.70 48.54 48.80 49.03 49.09 50.01 49.47 50.19 50.96 51.38 52.17 53.70 53.30 53.64 53.84 52.54 50.90 50.36 52.14 53.48 53.34 39.58 27.31 42.12 48.30 46.38 44.15 44.38 44.96 46.28 47.16 47.65 47.34 44.52 43.33 41.67 45.00 44.55 43.18 45.08 45.16 45.72 42.85 41.48 39.39 36.88 30.24
48.74 48.53 48.43 48.15 48.70 49.69 49.94 50.34 50.45 50.26 51.10 53.09 52.87 53.17 53.60 54.05 48.57 51.86 53.12 51.52 40.60 33.21 42.91 42.07 43.74 44.07 42.95 40.86 42.06 43.54 42.30 40.49 38.71 35.39 35.89 39.97 41.50 43.87 46.52 42.27 43.69 41.96 37.46 29.73 28.37 28.08 28.53
49.08 48.47 48.09 47.74 48.08 48.40 49.04 50.10 50.42 49.92 50.47 52.15 52.43 52.57 53.60 54.50 51.99 50.71 52.98 47.17 32.90 37.95 39.81 46.69 43.79 42.18 38.89 41.63 41.69 42.55 39.67 37.64 39.61 39.16 35.31 34.75 33.22 41.41 44.54 42.23 39.23 39.95 37.54 30.21 26.26 26.13 28.99
49.63 48.63 47.78 47.75 47.85 48.18 47.91 49.39 49.92 49.72 50.13 51.19 51.86 51.34 51.10 53.81 53.89 49.90 46.76 38.26 33.97 39.13 45.11 40.66 41.49 38.02 37.85 41.48 41.18 40.32 38.75 38.04 40.10 41.17 36.18 34.54 35.68 44.04 45.69 45.65 43.79 39.70 36.54 40.20 33.94 32.53 29.05
49.69 48.83 47.87 47.34 47.64 47.84 47.70 48.58 49.37 49.62 49.73 50.71 47.08 47.41 47.14 54.40 54.22 49.08 43.00 38.05 40.06 45.59 47.12 45.32 37.35 39.95 35.72 38.31 38.68 38.72 37.96 41.45 40.68 42.79 42.56 39.78 34.85 42.62 44.41 46.21 44.84 41.27 43.63 34.74 33.75 26.63 25.02
49.44 48.83 48.06 47.18 47.06 47.25 47.61 47.88 48.24 49.28 49.80 50.44 46.76 41.90 47.94 53.62 53.08 44.84 36.28 37.44 41.92 46.80 46.74 44.14 42.12 40.28 39.36 38.15 39.15 37.24 39.06 42.15 42.81 42.40 42.72 41.67 37.79 36.99 42.81 40.73 39.44 39.59 37.18 37.29 36.83 32.03 26.89
48.98 48.57 47.63 46.99 46.92 47.16 47.30 47.43 47.88 48.04 48.88 48.61 44.36 36.27 50.26 52.09 42.98 42.54 36.82 41.22 43.53 44.33 45.87 45.48 45.65 44.16 42.13 40.23 38.49 38.58 39.04 41.85 44.44 44.99 40.53 42.32 37.76 32.78 38.28 43.07 44.34 41.41 39.38 38.28 29.99 30.72 30.60
48.90 48.16 47.46 46.86 46.65 46.89 46.68 46.78 47.31 47.45 48.11 46.05 39.76 41.40 51.10 49.77 37.22 38.21 39.95 40.63 43.63 43.04 43.02 43.70 43.77 45.39 44.55 39.77 36.36 40.03 40.71 44.82 46.22 44.18 42.25 43.05 36.32 30.52 34.30 38.61 42.50 40.33 39.87 40.17 37.94 33.47 29.95
48.69 48.13 47.35 46.85 46.74 46.82 47.05 46.32 46.08 47.20 47.26 46.56 40.85 35.67 44.79 46.35 44.99 41.12 38.15 38.28 39.08 45.44 43.47 44.40 44.02 45.33 43.47 40.79 42.20 39.44 40.94 45.51 46.37 45.87 45.50 44.60 38.28 35.66 30.90 35.34 38.90 36.66 39.07 38.89 37.47 29.48 30.74
48.29 48.13 47.14 46.70 46.68 46.55 46.80 46.49 46.56 46.68 47.09 45.36 40.75 37.59 41.90 36.62 39.05 41.90 40.16 38.88 38.28 39.59 43.64 44.04 41.16 42.20 41.86 38.09 38.46 39.19 43.57 43.84 45.23 44.13 44.12 42.26 36.47 36.86 37.75 38.68 38.76 38.37 38.50 37.88 36.59 36.09 32.08
48.37 48.00 46.77 46.38 46.08 46.23 46.49 46.39 46.40 46.31 46.90 40.89 36.93 40.29 43.23 39.68 42.09 40.85 39.96 37.74 38.02 40.07 40.97 39.82 39.66 44.09 42.62 40.52 41.52 39.30 43.37 41.52 41.44 42.90 41.33 42.30 35.08 35.06 34.10 36.88 37.67 36.30 38.84 38.09 37.57 37.33 37.20
48.51 47.89 46.72 46.24 45.98 45.83 46.06 45.97 46.10 46.68 45.70 38.99 43.02 44.32 42.83 40.80 40.15 38.82 38.56 38.46 38.75 41.75 43.29 43.89 42.57 42.28 40.71 44.40 46.49 45.81 46.33 45.80 45.01 42.70 40.05 39.57 36.71 31.65 30.11 33.53 33.71 29.49 34.55 37.60 38.30 38.99 38.21
48.69 47.71 46.60 46.12 45.79 45.65 45.59 45.66 45.95 46.39 44.93 45.52 43.16 44.31 42.63 35.47 39.08 38.31 39.82 40.86 39.73 40.95 40.19 43.78 43.85 41.76 45.21 49.65 47.76 46.10 45.38 45.53 45.04 43.40 43.87 38.29 35.26 30.62 27.08 28.38 21.86 36.29 40.41 39.83 37.93 36.93 37.63
48.47 47.20 46.50 46.18 45.79 45.46 45.27 45.53 45.86 45.51 46.53 44.80 44.64 43.96 43.88 33.37 40.21 41.60 40.13 40.00 41.10 42.55 42.14 42.54 44.43 45.98 49.13 47.94 40.36 37.50 35.10 36.53 39.07 42.66 42.86 42.18 34.62 29.32 26.70 27.19 32.11 37.58 38.85 37.40 36.00 34.92 38.59
47.58 46.46 46.21 45.64 45.10 44.89 45.01 45.30 45.72 45.98 47.41 44.33 45.65 47.21 44.36 40.79 39.61 43.74 40.89 41.26 38.26 38.67 39.74 42.36 45.66 51.45 49.23 42.63 36.05 32.33 31.48 36.26 36.10 37.54 41.31 39.88 37.26 32.90 25.70 23.43 22.88 35.37 39.22 40.61 39.56 29.97 40.16
46.62 46.04 45.62 45.30 44.72 44.69 44.99 45.43 46.12 46.30 47.45 44.75 45.86 48.25 44.86 41.12 43.86 45.46 41.86 40.61 43.82 42.45 39.69 41.58 46.09 46.39 46.81 34.13 31.03 29.60 31.36 39.53 32.86 32.41 31.05 30.86 30.24 28.54 23.45 22.31 30.62 38.34 41.21 40.62 29.64 31.83 40.38
45.65 45.45 45.11 44.65 44.60 44.80 45.27 45.39 45.93 46.04 46.46 44.44 43.48 48.07 44.55 41.61 42.53 47.80 47.00 44.04 44.39 44.63 39.22 42.91 44.88 43.68 39.66 34.91 33.80 32.36 29.30 36.16 34.54 37.02 33.90 33.68 30.05 26.30 24.59 20.21 26.93 41.16 39.93 35.26 37.13 40.70 42.65
45.01 44.73 44.10 44.37 44.65 45.06 45.34 45.62 45.88 45.65 45.11 45.12 41.46 48.25 47.88 42.53 42.79 47.67 47.55 48.00 48.87 49.28 45.56 45.68 43.36 44.29 44.19 39.23 35.87 36.38 32.99 32.25 33.09 30.82 38.61 32.83 35.52 32.95 33.54 32.86 40.04 41.31 40.12 41.24 42.58 42.34 42.53

GFSGBSN_sfc_wetblb_069.txt.gz
Wetbulb
53.99 54.51 54.59 54.32 53.90 54.24 55.02 55.58 55.55 55.62 56.21 56.25 56.25 56.72 58.43 59.36 58.96 58.12 57.19 56.38 56.42 56.28 55.97 55.57 55.98 56.71 53.33 45.54 45.79 54.87 61.85 62.04 56.97 54.29 51.52 50.17 49.07 48.52 46.09 46.20 45.78 43.16 46.62 49.94 50.91 51.69 51.73
54.24 53.41 53.85 54.15 54.08 53.19 53.83 54.39 55.42 55.03 55.52 55.66 55.86 55.86 56.59 58.20 58.46 57.99 57.23 56.42 56.02 55.67 55.76 55.44 55.71 56.15 49.77 41.11 50.60 55.13 54.99 54.67 54.37 52.79 51.33 50.64 49.82 50.13 47.88 46.84 46.51 48.46 49.36 50.46 51.62 51.64 51.75
52.34 53.20 53.92 54.03 53.89 53.77 53.58 52.79 53.34 53.26 54.48 55.09 55.53 55.63 55.72 56.69 57.70 57.56 57.14 56.32 55.49 55.37 55.35 55.28 55.38 53.79 47.84 45.65 51.98 52.83 53.32 54.14 54.57 53.21 51.12 50.89 51.43 50.18 49.88 47.51 50.24 49.97 48.13 48.80 50.13 50.80 49.91
51.60 51.97 52.37 53.74 53.58 53.49 53.49 53.66 53.66 53.69 54.38 54.49 55.09 55.27 54.60 54.88 55.91 56.38 56.30 55.49 54.89 55.33 55.43 55.38 55.46 52.07 43.88 51.89 53.21 52.87 54.64 54.64 55.34 54.30 52.86 53.69 52.71 50.98 49.77 50.14 47.33 46.97 46.01 43.82 47.47 49.22 49.32
50.68 51.36 51.89 52.03 52.95 53.44 52.89 53.03 53.12 52.98 53.39 54.12 54.20 54.68 54.36 53.97 54.13 55.19 55.22 54.71 54.64 55.13 55.11 55.31 51.00 47.95 43.74 54.00 49.11 52.79 55.34 53.11 53.42 53.74 53.55 53.61 52.89 49.19 48.87 45.24 43.41 43.14 40.01 41.28 43.97 49.24 48.00
50.08 50.15 50.74 51.25 52.18 52.43 53.37 52.62 52.91 52.57 52.63 53.26 53.73 53.99 54.21 53.89 53.61 54.09 53.71 53.81 54.78 53.58 54.15 54.15 52.33 45.52 48.25 47.17 51.36 53.85 55.40 55.00 52.79 52.75 51.02 50.66 48.56 46.12 44.58 43.55 37.83 39.70 39.63 40.84 41.49 45.72 46.99
50.28 50.25 50.55 50.74 51.43 51.53 52.37 52.67 52.43 52.77 52.45 52.47 51.97 53.50 54.05 53.68 53.55 54.21 52.36 50.51 44.79 46.24 49.69 47.34 46.25 45.11 45.87 50.88 54.16 52.54 53.31 52.77 52.60 50.92 46.13 47.56 45.21 42.97 44.17 44.39 43.90 43.63 42.26 41.32 43.48 45.80 44.60
51.33 50.91 50.60 50.30 51.05 50.46 51.60 51.94 52.65 52.32 52.44 52.35 52.61 53.04 53.35 53.59 53.50 54.34 51.71 47.73 45.98 48.56 42.89 48.76 48.17 48.09 50.44 52.27 48.65 51.10 52.80 49.14 48.51 44.54 46.61 45.23 42.29 44.98 45.39 45.16 44.64 44.05 42.29 42.04 44.51 44.99 44.31
51.65 51.31 51.10 50.64 50.31 49.92 49.90 50.86 51.62 51.91 51.88 51.96 51.98 52.57 52.77 53.24 53.31 52.85 51.44 49.63 51.84 51.96 44.10 46.93 48.25 47.00 48.08 50.38 46.81 48.00 50.14 48.74 46.47 43.50 44.39 42.51 44.60 45.92 45.82 44.45 43.15 43.30 41.93 41.71 41.94 43.13 43.97
51.61 51.19 50.97 50.93 50.63 50.55 50.32 50.56 50.87 50.87 51.53 51.21 51.29 51.96 51.76 52.39 50.63 50.94 48.91 52.01 52.42 51.89 38.13 39.83 44.15 47.85 49.98 49.97 45.60 52.14 50.97 49.97 46.62 43.99 43.88 44.02 45.53 45.05 44.29 43.45 44.21 40.15 44.81 43.59 42.12 41.01 38.41
50.27 50.98 51.00 50.70 50.45 49.92 49.77 49.49 49.98 50.36 50.63 51.00 50.70 51.27 51.63 52.67 50.90 47.86 50.75 53.66 52.84 50.08 25.70 41.68 46.23 53.20 50.85 46.31 46.69 48.27 50.65 49.79 44.93 44.10 45.22 42.92 43.49 43.38 42.59 43.53 44.95 43.26 45.31 44.15 43.28 40.58 39.72
49.69 50.00 50.58 50.86 50.31 49.72 49.56 49.32 49.10 49.12 49.62 50.69 50.77 51.00 51.70 51.64 51.81 52.38 54.04 54.87 52.79 39.92 27.51 39.13 46.75 44.98 44.97 46.61 45.66 46.46 48.19 50.02 48.72 45.39 45.37 43.96 46.75 46.22 45.95 45.83 45.74 46.09 44.41 42.29 41.25 40.83 36.08
49.42 49.78 50.05 50.58 50.46 50.04 49.91 49.34 49.15 48.83 49.18 50.13 50.06 50.61 50.43 52.65 47.29 53.10 54.26 50.24 39.81 32.01 41.60 38.80 42.75 44.45 43.17 42.11 42.31 43.97 43.51 43.19 42.00 38.93 39.08 42.04 43.46 46.24 47.14 44.37 45.46 44.39 41.57 35.85 33.81 34.31 34.52
49.07 49.26 49.55 49.91 50.02 49.90 49.90 49.45 49.04 48.66 48.89 49.41 49.63 49.38 49.75 51.23 52.25 53.33 51.65 43.62 33.40 36.91 37.82 43.80 43.18 43.12 39.80 41.09 41.50 42.25 41.11 40.58 41.86 41.66 38.00 37.68 35.91 43.37 45.99 45.11 43.29 42.32 41.89 36.46 29.19 30.39 33.86
49.35 49.26 49.37 49.49 49.59 49.83 49.89 49.51 49.01 48.50 48.80 49.41 49.01 47.37 46.84 49.59 51.80 51.41 45.97 35.66 34.51 38.12 41.77 40.66 41.56 39.48 38.94 40.15 40.86 41.38 40.65 41.16 42.92 42.84 39.48 36.15 36.89 44.76 46.25 46.87 46.28 42.41 39.72 41.92 35.86 34.63 34.07
49.71 49.46 49.39 49.38 49.26 49.33 49.58 49.53 48.98 48.60 48.69 49.00 44.52 43.79 43.31 50.19 52.38 49.31 41.65 35.77 38.98 43.43 45.27 45.06 38.77 40.29 37.36 38.08 38.54 39.91 38.52 41.90 41.89 43.51 45.51 41.72 37.10 43.48 45.44 46.94 45.71 44.59 45.35 38.45 37.61 30.11 28.76
49.03 49.21 49.46 49.16 49.11 49.02 49.20 49.29 49.00 48.51 48.28 48.75 43.00 38.25 44.91 51.27 51.18 43.15 34.98 36.59 40.52 45.17 46.20 42.57 41.91 40.98 39.15 38.25 39.36 37.76 38.92 42.17 44.03 42.30 44.58 42.66 40.81 39.24 44.28 42.92 42.27 41.85 40.56 39.36 40.03 36.91 32.65
48.24 48.37 48.78 48.77 48.90 48.83 49.00 49.33 48.80 48.14 47.87 46.58 41.33 32.31 46.15 49.76 37.89 39.07 35.29 39.14 42.20 43.01 46.14 44.71 44.28 43.15 42.33 40.12 38.30 38.46 39.29 42.50 43.89 43.91 41.31 44.17 40.62 35.86 40.08 44.05 44.95 43.74 42.66 41.83 37.21 34.31 34.44
48.52 48.76 48.53 48.69 48.66 48.57 48.76 49.12 48.73 47.82 47.85 42.94 37.30 36.94 46.75 45.68 31.75 34.12 37.99 39.34 41.88 41.19 42.55 42.42 41.68 43.66 45.61 42.35 37.05 39.59 40.80 44.86 43.26 44.05 42.76 43.49 38.44 34.33 36.35 40.14 43.58 42.41 41.83 41.17 39.25 37.61 34.70
48.25 48.40 48.73 48.67 48.81 48.71 48.73 48.98 48.37 47.83 47.96 43.81 37.74 31.25 39.16 41.42 40.03 36.28 35.83 36.40 37.61 43.11 42.56 43.74 42.78 44.23 43.28 41.67 43.01 40.02 40.15 44.50 44.18 44.90 44.69 45.66 39.65 37.81 34.33 37.61 40.93 38.90 40.60 40.80 41.12 35.71 36.92
48.46 48.81 48.94 48.81 48.80 48.55 48.45 49.13 48.16 47.56 47.43 42.97 38.43 35.10 38.26 32.30 33.67 35.79 37.45 37.51 36.41 37.19 42.57 43.53 41.14 42.22 41.70 38.56 40.44 39.56 42.97 44.67 45.27 45.05 44.87 45.49 39.01 38.85 39.02 39.25 40.27 40.60 40.40 39.58 39.41 40.48 37.67
47.43 47.80 48.12 48.55 48.50 48.30 48.27 48.90 47.60 47.56 47.50 40.81 34.86 36.01 38.47 37.94 37.20 34.80 36.79 35.96 36.76 38.72 39.89 39.21 39.51 41.26 42.21 40.49 42.03 39.48 42.44 43.28 43.18 43.39 43.09 43.02 39.30 38.49 37.40 38.61 39.41 38.55 40.07 39.56 39.50 39.30 39.60
46.78 47.12 47.26 48.03 48.47 48.37 48.08 48.37 47.45 47.26 46.64 39.91 40.28 39.97 37.52 36.79 36.32 33.31 33.08 35.98 38.19 40.70 41.88 42.89 42.07 41.51 40.28 42.15 45.34 45.43 46.41 46.27 46.14 44.75 41.52 40.43 38.40 36.36 34.32 36.38 37.53 33.33 38.18 39.89 40.49 41.24 41.76
46.94 46.81 46.96 47.19 48.18 48.38 47.82 47.69 47.04 46.84 45.74 42.92 40.76 40.34 36.50 31.88 36.03 34.79 35.05 37.45 38.03 40.39 38.90 42.97 43.81 41.55 44.41 48.90 47.74 47.05 45.65 44.65 44.54 43.53 44.85 39.39 38.25 35.73 33.21 32.03 28.81 40.79 42.05 42.27 41.20 41.86 42.01
46.86 46.72 46.65 47.06 47.09 48.24 47.74 47.17 46.73 46.38 46.46 41.16 40.89 38.69 38.07 32.52 36.62 37.37 37.13 35.91 40.39 42.10 40.44 41.64 44.40 46.58 48.17 46.67 39.91 36.06 36.74 38.55 40.09 42.03 42.11 42.54 37.66 33.04 32.72 32.26 35.63 38.40 40.15 40.75 39.71 40.55 43.00
47.12 46.82 46.28 46.41 46.19 47.80 47.55 46.87 46.46 46.29 46.73 42.50 40.87 42.59 40.64 36.04 35.49 40.22 38.73 37.78 36.36 38.11 38.64 41.09 45.83 48.33 47.31 41.05 36.85 32.22 30.10 36.52 37.34 37.92 40.81 39.08 38.94 38.31 30.37 31.03 28.99 38.34 41.75 42.92 43.06 36.21 43.73
46.55 45.76 45.83 46.28 45.12 47.44 47.35 46.55 46.25 46.26 46.52 42.54 39.89 43.39 40.88 37.51 39.75 40.94 38.38 37.88 40.38 39.95 37.48 39.60 42.09 44.30 46.90 34.68 33.07 32.59 34.35 40.65 36.00 34.46 34.57 34.66 33.79 33.99 29.78 33.03 35.00 40.56 41.83 42.96 36.72 39.62 43.04
45.52 45.47 45.88 45.67 45.16 47.33 46.71 46.34 46.23 46.40 46.51 42.93 39.97 43.30 40.43 36.81 39.41 41.71 43.78 41.53 41.28 41.28 36.37 39.37 40.72 41.68 39.29 34.79 33.61 34.19 33.70 37.84 37.47 39.13 37.04 36.42 34.15 33.44 31.81 31.94 32.10 42.64 40.84 38.78 44.00 42.61 43.20
45.34 45.59 45.69 43.61 47.02 46.70 46.39 46.15 45.99 46.10 46.49 44.66 38.27 43.16 43.98 39.05 39.84 44.98 44.84 45.21 45.61 46.27 42.56 43.31 41.01 41.27 42.11 38.76 36.44 36.52 34.64 34.39 37.76 34.85 40.06 36.63 39.57 37.39 38.09 39.22 44.83 43.29 45.62 44.69 44.37 45.13 44.26

GFSGBSN_sfc_wetblb_072.txt.gz
Wetbulb
53.41 54.51 54.56 53.89 54.23 54.15 53.90 54.11 55.09 54.99 55.07 55.14 55.50 55.98 56.28 56.54 58.03 58.64 57.96 57.30 57.34 57.37 57.17 56.88 56.49 56.46 56.22 50.70 50.51 56.71 62.99 62.17 59.50 57.25 55.01 53.29 52.27 52.36 49.45 50.63 50.91 49.30 50.32 53.91 52.66 54.69 55.42
52.21 52.32 52.74 54.04 53.96 53.72 54.21 53.66 53.81 54.16 53.93 54.51 54.68 55.27 55.80 55.86 56.46 57.26 57.70 57.22 56.70 56.78 56.72 56.51 56.34 55.82 53.15 46.34 54.00 59.61 59.56 58.57 57.40 56.70 54.85 54.50 53.29 53.96 51.80 50.94 50.45 52.78 53.37 54.19 55.22 55.15 54.78
51.61 52.00 52.07 52.53 53.31 53.49 53.43 53.71 53.59 53.58 53.84 53.92 54.32 54.63 55.37 55.35 55.25 55.76 56.66 56.92 56.43 56.41 56.42 56.29 55.92 55.54 50.79 49.83 54.94 58.58 57.53 57.00 58.28 57.62 54.41 55.00 54.88 53.80 53.90 50.73 54.48 53.83 51.28 53.26 53.82 54.39 53.03
50.91 51.00 51.21 51.72 52.25 52.69 53.22 53.50 53.25 53.24 53.41 53.00 53.47 54.08 54.03 54.50 54.29 54.27 55.00 55.65 55.81 56.13 56.16 55.90 55.67 55.08 48.44 55.42 56.68 55.09 56.41 57.78 58.20 58.44 56.58 57.20 56.12 55.00 53.53 53.66 52.32 50.73 51.05 46.60 51.82 52.86 52.84
50.83 50.71 50.86 51.01 51.84 52.32 52.40 53.06 53.45 53.15 53.20 53.05 52.39 52.85 53.37 53.56 53.64 53.66 53.85 54.87 55.21 56.00 55.04 55.28 55.11 52.64 47.97 55.66 52.89 55.39 55.71 54.44 56.92 57.52 57.83 56.01 56.23 53.39 52.82 49.46 48.08 48.95 44.06 44.56 46.96 51.90 51.61
51.35 51.25 51.19 51.41 51.64 51.88 52.01 52.24 52.37 53.25 52.58 52.72 52.58 52.35 52.74 53.21 53.25 53.14 53.46 54.30 55.95 53.97 54.79 55.53 55.04 49.29 52.12 49.71 53.73 56.55 58.05 55.20 54.93 55.63 54.12 53.69 53.20 50.59 50.10 47.71 41.59 43.18 43.64 44.74 45.10 49.16 50.25
52.11 51.75 51.58 51.81 51.79 51.47 50.83 51.67 52.13 52.36 52.89 52.59 52.43 52.52 52.63 52.67 53.13 53.14 54.93 57.58 52.58 50.73 51.76 49.89 50.20 49.50 50.32 54.01 56.99 55.71 57.71 56.34 55.05 53.98 49.73 52.18 48.78 46.29 47.45 48.51 48.32 47.10 45.55 44.58 47.27 49.52 48.23
51.57 52.90 52.68 52.23 51.92 50.55 50.58 50.74 51.15 51.65 52.30 52.69 52.09 51.95 52.11 52.79 53.17 53.37 55.51 52.09 52.60 51.46 45.59 50.54 50.66 51.45 53.91 54.72 50.47 54.72 56.61 51.92 51.37 48.41 50.71 48.75 46.32 49.37 49.55 48.97 47.65 46.99 45.27 45.20 47.55 48.79 47.53
50.57 51.04 52.31 52.42 52.22 51.31 50.81 50.48 50.61 51.23 51.69 51.69 51.63 51.58 51.77 51.92 52.74 53.18 53.73 53.91 56.31 54.31 47.22 48.13 51.75 50.41 50.97 52.46 49.07 51.61 54.43 52.29 49.54 48.24 48.53 46.27 47.75 49.78 48.81 47.67 46.37 46.74 45.38 45.35 44.65 47.97 48.94
50.17 50.13 50.46 51.71 52.25 52.00 51.65 51.21 50.81 50.60 50.74 51.14 51.20 51.08 50.82 51.16 49.24 53.57 52.38 56.27 58.22 56.22 42.21 42.08 45.61 50.05 51.05 51.36 47.51 53.63 55.52 51.82 49.79 47.33 48.27 47.79 50.40 48.08 47.84 46.21 47.83 44.05 48.60 47.46 46.13 45.27 42.34
49.81 49.92 49.92 50.27 50.76 51.21 50.98 50.83 50.76 50.65 50.32 49.96 50.74 50.60 50.68 50.74 50.11 50.78 54.39 58.45 56.61 54.33 29.77 43.43 46.44 54.62 52.46 47.83 48.86 49.58 55.60 52.28 47.95 47.92 48.63 46.05 47.10 46.81 46.05 47.15 48.75 45.95 48.62 47.80 47.15 45.90 44.78
49.55 49.77 49.96 50.00 49.77 50.00 50.69 50.54 50.35 50.22 49.89 49.78 49.81 50.76 50.54 49.70 51.73 53.57 57.12 57.67 55.77 42.44 29.94 40.28 47.83 47.24 46.38 47.75 47.68 50.71 50.69 53.21 52.69 48.88 49.30 48.27 50.66 49.86 48.61 49.64 49.77 49.41 47.83 47.35 47.45 46.14 39.44
48.84 49.20 49.56 49.67 49.67 49.82 50.24 50.65 50.25 49.89 49.67 49.12 49.22 50.07 49.69 50.41 47.68 55.05 55.44 53.22 41.09 34.56 42.87 39.18 43.72 46.11 46.04 44.36 45.64 47.24 46.92 46.84 45.47 42.33 42.76 46.31 47.06 49.60 50.21 47.65 49.26 48.46 46.20 40.00 37.90 38.23 37.69
48.94 49.07 49.43 49.59 49.72 49.78 50.01 50.42 50.01 49.94 49.43 49.01 48.92 49.28 49.30 49.33 52.89 53.88 52.26 45.10 33.37 38.03 40.50 44.99 44.07 45.45 42.79 44.61 44.63 46.10 45.48 44.24 48.07 46.74 43.82 41.58 39.73 46.72 49.71 47.83 45.98 46.90 46.45 40.63 32.23 34.91 38.48
48.99 49.10 49.21 49.45 49.58 49.83 49.75 49.78 49.93 49.85 49.44 48.94 49.07 47.89 46.84 48.30 52.15 51.96 46.39 34.99 35.07 39.38 43.12 41.95 42.48 41.67 41.14 43.26 43.93 44.91 45.17 44.46 46.99 48.35 42.59 41.66 41.46 47.84 49.05 49.88 49.62 46.34 43.57 47.04 40.98 40.97 38.91
49.20 49.30 49.37 49.42 49.52 49.49 49.55 49.48 49.45 49.67 49.35 48.85 45.92 45.28 43.73 48.96 51.78 47.75 38.91 36.22 39.42 44.47 45.04 45.66 37.68 42.68 40.65 40.50 41.23 43.13 43.57 46.72 46.35 48.95 50.06 45.57 40.40 46.37 48.36 50.12 49.15 48.30 49.70 41.90 43.32 33.38 32.31
48.74 48.97 49.02 49.25 49.30 49.22 49.19 49.30 49.09 49.31 49.20 48.75 44.78 38.54 45.99 50.34 49.02 41.49 32.99 36.74 40.94 46.39 47.18 44.28 43.75 41.41 42.10 42.24 42.14 42.17 42.96 44.75 48.48 47.81 49.85 47.86 45.04 43.79 47.63 46.10 45.45 45.83 44.81 45.15 44.79 42.47 36.16
48.15 48.45 48.59 48.67 48.94 49.31 49.22 49.19 48.96 49.30 48.90 46.92 41.91 32.97 47.07 50.48 34.62 37.38 34.37 39.29 42.42 43.29 48.19 46.25 46.21 45.80 44.18 43.09 42.19 41.93 42.29 44.99 48.99 49.34 45.38 48.59 45.74 40.95 43.29 48.44 49.67 49.05 46.63 46.71 40.32 38.77 41.28
48.11 47.88 48.12 48.56 48.83 48.95 49.14 48.93 48.77 49.03 48.58 44.15 37.37 37.72 48.40 47.35 29.98 32.31 38.68 39.32 42.35 42.94 43.56 44.80 44.31 45.40 46.75 44.59 40.67 43.76 44.10 48.22 48.53 48.56 46.83 48.12 43.81 38.85 40.18 44.09 46.90 45.53 47.04 47.38 46.20 44.46 40.15
48.19 48.24 48.40 48.33 48.76 48.99 49.12 48.90 48.74 48.78 48.66 44.70 38.25 31.51 39.28 40.44 41.34 36.34 35.87 37.38 37.70 43.57 43.94 45.43 45.18 46.37 44.62 42.59 45.97 42.33 42.56 45.40 47.92 49.01 47.38 48.70 45.74 42.16 38.12 41.08 44.50 42.59 44.37 45.96 45.09 40.88 40.44
46.88 47.02 47.89 48.13 48.44 48.75 49.04 49.10 48.70 48.89 48.12 43.72 39.63 35.38 39.11 31.30 33.59 37.46 38.29 38.06 36.82 37.62 43.03 45.24 43.82 44.73 44.16 40.53 42.29 41.92 43.25 45.28 45.52 45.40 48.15 48.66 42.53 44.45 44.42 44.74 44.66 43.92 43.55 44.63 43.24 43.86 40.76
46.54 46.95 46.85 47.39 48.30 48.18 48.78 48.79 48.42 48.69 47.85 40.85 35.17 37.98 40.60 38.86 39.22 36.10 36.73 35.44 36.56 39.20 41.05 39.95 41.12 44.21 45.58 42.71 42.92 40.40 43.40 44.12 45.00 47.01 47.15 48.56 43.06 44.68 42.31 44.64 44.29 42.58 44.44 44.91 45.31 45.36 45.37
46.64 46.69 46.62 47.12 47.71 48.05 48.31 48.56 48.28 48.52 46.67 39.20 43.91 44.18 41.86 37.89 37.94 34.19 34.10 36.26 37.93 41.14 43.10 43.87 43.77 43.07 42.96 44.62 47.48 47.10 47.54 47.77 47.63 46.36 45.65 45.42 44.45 41.93 38.19 42.91 42.27 37.40 43.06 44.70 45.72 46.88 46.57
46.94 46.99 47.08 46.84 47.22 48.33 48.46 48.33 47.93 48.25 46.45 43.29 42.59 43.70 38.99 34.35 37.31 35.99 36.91 37.57 38.02 40.73 40.01 43.79 45.46 44.20 47.10 50.63 49.11 47.34 46.99 45.70 46.40 46.99 49.05 45.08 44.55 43.88 38.73 37.03 32.94 43.49 47.58 48.42 46.54 47.43 48.86
46.57 46.83 47.45 47.18 46.98 47.56 47.89 48.22 47.66 47.98 46.99 43.68 45.23 44.07 39.67 35.67 38.07 37.76 37.35 37.55 38.71 40.78 41.64 42.90 45.65 48.27 50.64 47.01 41.57 37.98 37.60 39.26 41.34 44.66 47.05 48.96 45.82 40.67 38.54 37.32 41.72 42.24 42.48 45.09 44.56 44.83 49.44
46.88 46.77 46.85 47.23 46.70 47.00 47.43 47.93 47.41 47.73 46.90 44.97 45.75 48.48 44.05 38.77 36.52 40.56 38.49 38.74 37.30 38.42 40.15 43.88 48.92 51.72 50.12 44.50 40.77 33.99 32.10 35.98 38.09 41.42 45.03 45.75 46.21 43.92 37.60 38.23 34.43 42.92 47.68 49.67 48.62 41.32 50.20
46.24 45.60 46.97 47.33 46.53 46.69 47.33 47.90 47.59 47.39 46.68 45.04 45.41 49.74 44.47 38.93 42.31 42.40 38.94 38.44 41.77 41.18 40.71 42.80 45.38 45.83 49.64 43.61 36.74 37.05 35.22 40.29 35.30 37.66 37.80 38.85 40.06 39.17 39.44 39.44 42.06 46.59 46.06 48.75 39.61 42.96 49.89
45.16 45.70 46.98 46.98 46.52 46.58 46.69 47.32 47.45 47.19 46.56 44.97 44.58 49.23 45.12 40.70 42.36 44.20 44.91 41.96 42.72 42.69 40.06 43.59 43.40 44.90 44.55 40.03 38.28 40.04 39.49 41.30 39.80 41.48 40.91 40.08 39.33 38.46 40.44 37.08 35.92 46.22 44.80 43.87 49.78 49.92 50.64
45.78 46.51 47.04 46.42 46.12 46.22 46.64 47.02 47.24 46.96 46.26 46.04 41.57 47.81 47.84 42.68 41.95 45.87 45.44 47.10 45.11 47.12 46.08 46.72 44.45 45.04 46.15 42.64 44.15 43.63 41.05 42.43 41.78 36.89 45.27 39.76 44.30 43.03 43.13 44.11 50.99 48.87 51.05 51.49 51.77 51.67 50.10

GFSGBSN_sfc_wetblb_075.txt.gz
Wetbulb
52.72 52.66 52.94 53.28 54.27 54.49 54.11 54.61 54.78 54.45 54.05 54.14 54.55 54.87 54.97 54.94 55.67 55.94 56.28 56.89 57.79 57.97 57.93 58.04 57.83 57.38 57.16 52.79 53.18 60.26 62.71 62.57 59.19 58.71 56.51 54.12 52.77 52.61 50.70 51.47 52.01 50.43 50.65 52.11 54.89 54.16 56.05
52.16 52.17 52.31 52.56 52.79 53.01 54.10 54.12 54.30 53.96 53.77 53.73 54.13 54.31 54.69 55.33 55.57 55.51 55.23 55.44 56.37 57.03 57.41 57.79 57.55 56.39 56.02 48.64 56.35 58.45 60.23 62.04 60.14 58.28 56.25 55.99 54.86 55.13 52.95 51.77 51.19 53.28 52.86 53.46 55.08 55.43 55.77
51.17 51.36 51.85 51.75 52.22 52.41 52.52 53.19 53.20 53.76 53.59 53.65 53.44 53.45 54.00 54.64 54.94 54.83 54.89 54.71 54.91 55.90 57.05 57.38 57.28 57.14 53.90 52.69 57.43 58.22 59.03 59.48 59.98 58.35 55.79 57.20 56.98 54.63 54.91 51.54 53.98 54.68 51.02 52.75 53.88 54.41 53.78
51.40 51.30 51.22 51.65 52.18 52.30 52.55 52.69 53.07 53.14 53.75 53.36 53.40 52.71 53.08 53.29 53.95 53.89 54.01 53.89 54.08 55.30 56.61 56.92 56.06 56.89 51.40 57.48 58.77 56.55 57.67 59.29 60.35 60.15 58.56 58.96 58.85 56.14 54.37 55.35 52.88 51.54 51.67 46.57 49.53 53.77 53.95
51.98 51.77 51.68 51.83 52.13 51.93 52.13 52.60 52.75 52.18 52.78 53.37 53.01 52.63 52.10 52.39 52.72 53.22 53.22 53.43 53.87 55.38 56.32 55.71 56.12 55.55 49.51 56.27 53.83 55.76 56.39 55.76 58.91 59.21 59.15 58.81 57.79 54.61 54.72 49.41 47.67 49.84 44.20 46.04 48.70 52.02 51.80
52.53 53.20 52.20 52.42 52.55 52.19 52.14 52.17 52.12 52.55 52.52 52.76 52.91 52.61 52.25 52.55 52.55 52.60 52.78 52.87 55.19 55.42 56.00 57.74 56.77 50.85 53.01 50.72 54.51 55.04 56.65 56.27 56.63 56.76 55.94 55.33 54.18 51.38 51.30 48.70 41.60 44.71 45.31 46.07 45.37 49.17 50.93
50.90 51.05 51.75 53.24 52.91 52.64 51.87 52.08 51.84 51.79 52.30 52.59 53.11 52.70 52.27 52.02 52.32 52.68 53.16 55.94 53.55 53.15 54.90 50.46 51.51 49.81 51.28 53.81 56.59 55.34 55.94 54.73 56.14 54.96 50.28 53.41 49.50 47.03 49.13 50.23 49.15 48.29 46.73 45.67 47.98 50.58 48.82
50.20 50.23 50.38 50.52 52.63 52.55 51.89 51.87 51.58 51.51 51.68 52.30 52.05 52.39 51.86 51.95 51.97 52.89 53.49 51.24 52.30 54.74 46.99 51.60 51.75 51.93 55.05 55.29 51.41 54.00 57.71 52.23 51.95 48.98 51.83 50.62 46.85 50.71 51.48 50.00 48.31 47.81 46.28 46.18 48.95 49.95 48.95
50.66 50.86 50.11 50.08 50.06 51.11 51.77 52.06 51.92 51.43 51.13 51.44 51.72 51.72 51.68 51.20 51.76 51.56 51.65 53.05 58.13 57.66 48.28 48.50 51.90 51.00 50.47 52.03 50.08 52.10 54.86 53.34 50.63 48.88 49.28 47.62 49.49 51.51 49.45 48.08 46.83 47.60 46.48 46.69 46.63 48.94 50.38
50.15 50.18 50.31 50.17 50.07 50.18 51.64 52.53 52.16 51.63 51.15 51.21 51.32 50.77 50.31 50.52 48.09 53.09 52.31 56.98 59.23 59.10 43.07 43.53 48.64 51.85 52.37 51.46 47.40 53.98 55.82 52.71 50.77 48.01 49.09 48.93 51.10 49.21 48.67 47.33 48.88 45.13 49.79 48.19 47.46 46.23 40.99
49.81 49.80 49.97 50.22 50.35 50.16 50.16 50.79 51.97 51.88 51.30 50.87 50.62 50.87 50.03 49.41 48.77 50.46 55.70 59.44 60.36 56.89 30.43 46.24 48.10 55.38 52.52 48.63 48.14 49.59 54.94 52.89 48.24 48.55 49.13 47.00 48.20 48.17 47.13 47.76 49.76 47.28 49.97 48.57 48.41 46.97 46.40
49.09 49.37 49.69 49.77 49.82 50.00 49.93 50.08 50.48 51.30 51.11 50.61 50.12 50.63 50.49 48.02 49.20 50.55 53.06 57.67 56.79 41.08 30.39 42.79 49.35 47.46 47.91 48.24 47.47 50.29 50.43 54.25 52.55 49.19 49.75 49.00 52.18 50.68 49.79 50.81 50.86 50.83 48.88 48.69 48.82 47.13 40.26
48.84 48.90 49.20 49.31 49.52 49.66 49.87 50.04 49.99 50.81 50.79 50.49 49.98 49.93 49.40 49.37 45.45 54.57 54.08 49.87 39.33 32.71 43.29 41.63 44.59 47.95 47.43 45.60 44.63 47.64 46.73 47.59 45.49 42.73 43.76 47.14 48.24 50.86 51.20 48.74 50.86 49.67 47.03 40.34 38.56 39.41 38.38
48.67 48.65 49.03 49.13 49.49 49.54 49.75 49.94 49.90 50.07 50.57 50.29 49.70 49.25 48.71 48.54 51.37 50.67 48.82 42.05 32.15 38.37 39.76 46.65 45.95 47.80 44.39 45.99 44.49 46.41 45.99 44.97 48.31 47.08 45.13 42.25 40.68 48.03 50.82 49.12 47.41 47.63 47.21 41.40 34.13 35.67 38.90
48.82 48.74 48.93 49.10 49.29 49.40 49.55 49.80 49.84 49.88 50.04 49.95 49.48 49.09 47.64 48.87 51.92 49.91 41.92 34.29 36.02 39.63 43.19 42.07 45.52 42.82 44.26 45.75 44.07 44.51 45.26 44.76 47.02 48.35 43.87 42.83 42.61 49.89 50.59 50.94 50.42 47.56 44.64 49.34 43.69 43.76 40.23
48.57 48.78 48.81 48.76 48.99 49.12 49.33 49.54 49.62 49.64 49.56 49.48 47.94 44.59 44.44 50.18 52.71 46.96 36.70 33.36 39.60 43.92 43.67 44.45 40.26 43.47 41.75 43.58 40.62 42.38 43.88 46.97 46.42 49.04 50.68 46.95 42.19 47.86 49.05 50.93 50.82 48.89 50.93 43.14 44.18 35.01 33.60
48.68 48.75 49.02 48.92 48.97 48.84 49.13 49.43 49.24 49.29 49.35 49.28 44.86 39.15 46.96 51.16 49.79 41.08 30.71 35.55 41.19 45.51 44.89 43.29 42.75 42.14 43.01 44.03 42.03 41.38 43.08 46.35 48.31 48.20 50.24 48.73 46.17 45.37 48.28 46.52 45.86 46.65 45.93 46.86 46.57 43.42 37.28
48.26 48.37 48.53 48.74 48.91 49.00 49.31 49.44 49.47 49.21 49.19 47.45 42.22 33.85 48.69 50.64 36.31 36.41 32.58 38.85 42.00 43.64 46.41 45.19 46.01 46.12 43.66 44.14 43.34 41.09 41.65 45.95 49.44 49.90 46.72 49.16 46.53 42.63 44.16 49.47 50.44 49.53 47.10 46.97 41.41 39.85 42.98
47.95 48.21 48.42 48.61 48.67 48.73 48.89 49.06 49.44 49.12 48.91 44.83 36.95 37.84 48.93 48.79 30.75 31.91 37.29 38.37 40.88 41.85 42.97 44.74 44.77 47.04 49.00 43.81 41.38 44.21 44.39 48.85 49.44 48.99 47.96 49.01 44.43 39.54 42.08 45.89 48.60 46.46 48.29 48.47 47.97 46.75 41.89
47.76 48.22 48.25 48.47 48.95 48.62 48.82 48.87 49.13 48.95 49.00 45.69 37.31 32.30 40.74 41.38 41.67 37.65 35.25 36.09 37.08 42.64 42.72 44.52 45.70 46.70 45.37 43.59 46.53 43.22 43.93 47.01 49.78 49.35 48.31 50.35 45.96 42.93 39.27 42.65 46.22 43.61 45.30 47.08 46.41 43.00 42.22
47.79 47.82 47.49 47.66 48.03 48.65 48.67 48.68 48.67 48.81 48.77 44.67 38.48 37.00 40.58 31.43 34.20 38.40 38.97 37.88 36.25 37.07 42.22 44.45 43.07 44.89 44.08 40.34 41.86 42.24 45.32 45.66 46.80 46.99 49.34 49.50 43.29 44.69 45.03 46.05 45.98 45.03 44.86 45.12 44.13 45.15 42.14
46.83 46.76 46.65 46.73 47.09 47.80 48.41 48.47 48.31 48.60 48.65 42.32 35.41 37.89 40.44 39.65 38.86 37.61 37.15 36.60 36.86 38.74 40.29 40.10 41.87 43.85 45.14 41.90 43.50 40.13 43.67 44.38 44.28 47.64 47.18 50.12 43.95 44.94 42.79 45.54 45.42 43.35 44.81 45.44 45.26 45.23 45.10
46.35 46.31 46.17 46.34 46.43 46.96 47.27 48.28 48.07 48.27 47.84 40.81 42.60 45.29 41.70 38.45 38.04 35.58 37.13 37.32 37.91 40.80 42.60 43.74 43.29 43.33 43.14 45.10 48.74 48.77 48.72 47.54 47.13 45.83 46.92 47.23 46.11 43.12 39.42 44.46 44.19 40.61 43.73 44.99 45.93 46.96 46.50
46.02 46.21 46.29 46.33 46.62 46.72 46.85 46.96 48.01 48.33 47.78 45.58 43.89 44.53 40.11 34.47 37.42 37.47 38.12 39.05 38.71 40.04 39.90 43.34 45.21 43.57 46.96 51.19 51.10 48.63 46.72 46.11 45.77 45.21 47.80 46.17 45.67 45.22 40.42 39.81 33.98 44.09 48.85 48.32 46.44 47.27 48.61
46.03 46.37 46.44 46.81 46.86 46.80 46.70 46.17 47.02 47.71 48.12 45.43 45.87 44.75 41.04 37.20 38.93 38.46 39.02 38.67 40.05 41.68 40.83 43.10 44.89 48.12 50.25 49.44 43.70 39.30 37.40 38.41 40.63 43.75 45.28 46.89 45.60 42.11 39.02 38.67 41.85 44.07 45.39 46.37 45.47 45.37 49.56
46.22 46.34 46.71 47.00 46.76 46.57 46.64 46.60 46.50 47.89 48.00 45.99 45.72 49.93 45.26 39.56 38.87 41.95 39.50 40.00 37.95 37.97 39.85 42.70 47.72 51.44 50.95 45.22 41.56 34.75 32.39 35.89 34.59 39.32 47.26 45.41 47.21 44.01 40.57 36.34 33.51 43.43 48.03 50.83 50.59 43.01 50.60
46.45 46.52 46.82 47.03 46.84 46.76 46.79 46.65 46.90 47.72 47.96 46.03 44.59 51.39 46.68 39.63 42.03 43.20 38.16 39.34 42.88 41.26 39.71 42.14 44.08 46.27 49.28 41.96 38.09 36.81 35.84 40.21 35.42 36.60 37.92 40.75 41.51 40.20 40.78 39.43 42.57 48.10 49.45 51.47 41.29 43.81 51.48
46.40 46.75 46.57 46.89 46.78 46.88 46.88 46.69 46.59 47.95 47.83 45.87 43.81 51.15 46.91 41.69 43.02 45.26 45.75 42.51 43.18 43.00 38.71 42.50 42.91 44.91 44.56 39.41 38.17 38.95 39.11 40.27 39.66 40.79 40.89 40.19 39.51 39.65 41.65 38.52 36.25 49.49 47.65 44.70 50.28 54.01 53.38
45.66 45.92 46.61 46.29 46.45 46.90 46.66 46.65 47.25 47.69 47.60 46.50 42.16 50.07 49.93 44.27 43.83 48.65 48.32 49.93 49.03 47.59 43.31 43.98 44.15 44.73 46.00 42.79 44.15 43.17 43.06 45.88 41.57 36.71 44.12 40.81 44.44 42.86 44.21 44.51 51.75 51.08 51.38 53.32 54.29 53.77 54.14